Fort Knox, KY

10:31 PM EDT on May 26, 2017 (GMT -0400)
Godman Army Air Field

Weather History for KFTK - March, 2014

Change the Weather History Date:

Monday, March 17, 2014

  Actual Average Record
Temperature  
Mean Temperature 34 °F -  
Max Temperature 43 °F 52 °F 76 °F (2012)
Min Temperature 26 °F 33 °F 26 °F (2007)
Degree Days  
Heating Degree Days 30    
Moisture  
Dew Point 22 °F    
Average Humidity 66    
Maximum Humidity 82    
Minimum Humidity 56    
Precipitation  
Precipitation 0.00 in - - ()
Sea Level Pressure  
Sea Level Pressure 29.88 in    
Wind  
Wind Speed 8 mph (NNE)    
Max Wind Speed 13 mph    
Max Gust Speed -    
Visibility 10 miles    
Events      
Averages and records for this station are not official NWS values.
T = Trace of Precipitation, MM = Missing Value Source: NWS Daily Summary

Daily Weather History Graph

Daily Weather History Graph

Search for Another Location

Airport or City:

Trip Planner

Search our weather history database for the weather conditions in past years. The results will help you decide how hot, cold, wet, or windy it might be!

Date:

Astronomy

Mar. 17, 2014 Rise Set
Actual Time 7:51 AM EDT 7:52 PM EDT
Civil Twilight 7:25 AM EDT 8:19 PM EDT
Nautical Twilight 6:55 AM EDT 8:49 PM EDT
Astronomical Twilight 6:24 AM EDT 9:20 PM EDT
Moon 9:07 PM EDT (3/17) 8:08 AM EDT (3/17)
Length of Visible Light 12h 53m
Length of Day
12h 01m
Full, 99% of the Moon is Illuminated
Mar 17
Full
Mar 23
Last Quarter
Mar 30
New
Apr 7
First Quarter
Apr 15
Full

Hourly Weather History & Observations

Time (EDT) Temp. Windchill Dew Point Humidity Pressure Visibility Wind Dir Wind Speed Gust Speed Precip Events Conditions
12:58 AM 28.9 °F 21.1 °F 16.9 °F 61% 29.94 in 10.0 mi NNE 8.1 mph - N/A   Overcast
1:58 AM 28.6 °F 18.2 °F 16.0 °F 59% 29.92 in 10.0 mi NNE 12.7 mph - N/A   Overcast
2:58 AM 28.6 °F 19.9 °F 17.2 °F 63% 29.91 in 10.0 mi NNE 9.2 mph - N/A   Overcast
3:58 AM 28.4 °F 19.7 °F 16.5 °F 61% 29.90 in 10.0 mi North 9.2 mph - N/A   Overcast
4:58 AM 27.5 °F 19.3 °F 16.5 °F 63% 29.91 in 10.0 mi North 8.1 mph - N/A   Overcast
5:58 AM 27.3 °F 19.9 °F 17.2 °F 66% 29.89 in 10.0 mi North 6.9 mph - N/A   Overcast
6:58 AM 27.0 °F 19.5 °F 17.6 °F 68% 29.88 in 10.0 mi North 6.9 mph - N/A   Overcast
7:38 AM 26.6 °F 18.2 °F 17.6 °F 69% 29.85 in 10.0 mi North 8.1 mph - N/A   Overcast
7:53 AM 26.6 °F 19.1 °F 17.6 °F 69% 29.86 in 10.0 mi North 6.9 mph - N/A   Overcast
7:58 AM 27.0 °F 19.5 °F 17.8 °F 68% 29.89 in 10.0 mi North 6.9 mph - N/A   Overcast
8:23 AM 26.6 °F 16.8 °F 17.6 °F 69% 29.87 in 10.0 mi North 10.4 mph - N/A   Overcast
8:58 AM 27.5 °F 20.2 °F 18.0 °F 67% 29.94 in 10.0 mi NNE 6.9 mph - N/A   Overcast
9:58 AM 28.6 °F 20.7 °F 19.2 °F 68% 29.94 in 10.0 mi NNE 8.1 mph - N/A   Overcast
10:18 AM 28.4 °F 20.4 °F 19.4 °F 69% 29.90 in 10.0 mi NE 8.1 mph - N/A   Overcast
10:33 AM 30.2 °F 24.3 °F 19.4 °F 64% 29.89 in 10.0 mi NE 5.8 mph - N/A   Overcast
10:43 AM 30.2 °F 21.3 °F 21.2 °F 69% 29.88 in 10.0 mi NNE 10.4 mph - N/A   Overcast
10:58 AM 29.7 °F 21.3 °F 20.5 °F 69% 29.91 in 10.0 mi NNE 9.2 mph - N/A   Overcast
11:58 AM 32.0 °F 27.5 °F 23.0 °F 69% 29.90 in 10.0 mi NNE 4.6 mph - N/A   Overcast
12:58 PM 34.7 °F 30.6 °F 24.4 °F 66% 29.89 in 10.0 mi Variable 4.6 mph - N/A   Overcast
1:53 PM 37.4 °F 31.4 °F 26.6 °F 65% 29.85 in 10.0 mi North 8.1 mph - N/A   Mostly Cloudy
1:58 PM 37.4 °F 32.1 °F 25.9 °F 63% 29.88 in 10.0 mi North 6.9 mph - N/A   Mostly Cloudy
2:58 PM 39.0 °F 32.8 °F 27.7 °F 64% 29.86 in 10.0 mi North 9.2 mph - N/A   Partly Cloudy
3:58 PM 40.5 °F 34.6 °F 28.9 °F 64% 29.85 in 10.0 mi North 9.2 mph - N/A   Clear
4:58 PM 41.5 °F 35.9 °F 27.9 °F 58% 29.83 in 10.0 mi NNW 9.2 mph - N/A   Clear
5:58 PM 43.2 °F - 28.6 °F 56% 29.82 in 10.0 mi NNW 2.3 mph - N/A   Clear
6:58 PM 42.8 °F 39.3 °F 28.4 °F 57% 29.85 in 10.0 mi North 5.8 mph - N/A   Clear
7:58 PM 38.7 °F 34.3 °F 28.8 °F 68% 29.85 in 10.0 mi North 5.8 mph - N/A   Clear
8:58 PM 35.4 °F 31.5 °F 27.5 °F 73% 29.86 in 10.0 mi North 4.6 mph - N/A   Clear
9:58 PM 36.0 °F 33.3 °F 27.3 °F 71% 29.87 in 10.0 mi East 3.5 mph - N/A   Clear
10:58 PM 36.0 °F - 29.7 °F 78% 29.90 in 10.0 mi ENE 2.3 mph - N/A   Clear
11:58 PM 33.6 °F 29.4 °F 28.8 °F 82% 29.89 in 10.0 mi East 4.6 mph - N/A   Clear